Terug naar catalogus

STARLINK-34329

ActiefCommunicatieVLEO
NORAD 64256·PAYLOAD·🇺🇸 United States

Gelanceerd Jun 4, 2025 vanaf Vandenberg Space Force Base

Loading…

Volgende Passages (komende 24 uur)

TLE

VersSource: CelesTrak SupGP

Epoch: Sep 14, 2026, 21:43 UTC

1 64256C 25120A   26257.90534722  .00012883  00000+0  38073-3 0  2579
2 64256  53.1595 312.0943 0001187  82.0064  18.7501 15.34376261    13

Volg STARLINK-34329 in realtime met AllMySat

Download on the App Store